Location: Unspecified
(40.7945°N, 0.0000°E)
Time: 03:27:56
(UTC+00:00)

Altair - Pass Details

Date: 24 January 2021
Orbit: 1501 x 1682 km, 47.2° (Epoch: 01 March)

Event Time Altitude Azimuth Distance (km) Brightness Sun altitude
Rises 13:18:45 0° 293° (WNW) 4,925 10.1 28.2°
Reaches altitude 10° 13:22:58 10° 278° (W) 3,916 9.8 27.9°
Maximum altitude 13:29:44 21° 235° (SW) 3,093 10.3 27.5°
Drops below altitude 10° 13:36:22 10° 191° (SSW) 3,818 11.2 27.0°
Sets 13:40:27 0° 176° (S) 4,767 11.0 26.7°
